Year,Month,Day,Hour,Minute,Value (Times are PST for windspeed in km/hr)
2010,07,13,00,00,7.10
2010,07,13,00,01,8.00
2010,07,13,00,02,9.20
2010,07,13,00,03,5.90
2010,07,13,00,04,10.80
2010,07,13,00,05,8.80
2010,07,13,00,06,10.00
2010,07,13,00,07,8.20
2010,07,13,00,08,6.50
2010,07,13,00,09,6.40
2010,07,13,00,10,4.50
2010,07,13,00,11,9.30
2010,07,13,00,12,11.00
2010,07,13,00,13,9.70
2010,07,13,00,14,7.20
2010,07,13,00,15,9.50
2010,07,13,00,16,5.60
2010,07,13,00,17,10.10
2010,07,13,00,18,7.80
2010,07,13,00,19,10.70
2010,07,13,00,20,9.20
2010,07,13,00,21,8.00
2010,07,13,00,22,10.80
2010,07,13,00,23,9.40
2010,07,13,00,24,8.00
2010,07,13,00,25,10.30
2010,07,13,00,26,10.30
2010,07,13,00,27,4.70
2010,07,13,00,28,7.70
2010,07,13,00,29,4.30
2010,07,13,00,30,8.10
2010,07,13,00,31,6.90
2010,07,13,00,32,8.80
2010,07,13,00,33,12.00
2010,07,13,00,34,10.20
2010,07,13,00,35,10.70
2010,07,13,00,36,5.40
2010,07,13,00,37,5.40
2010,07,13,00,38,10.60
2010,07,13,00,39,7.50
2010,07,13,00,40,5.20
2010,07,13,00,41,8.90
2010,07,13,00,42,7.40
2010,07,13,00,43,8.70
2010,07,13,00,44,11.40
2010,07,13,00,45,5.90
2010,07,13,00,46,11.40
2010,07,13,00,47,10.50
2010,07,13,00,48,10.20
2010,07,13,00,49,7.60
2010,07,13,00,50,4.20
2010,07,13,00,51,10.80
2010,07,13,00,52,6.20
2010,07,13,00,53,2.40
2010,07,13,00,54,8.30
2010,07,13,00,55,9.70
2010,07,13,00,56,8.00
2010,07,13,00,57,7.40
2010,07,13,00,58,12.00
2010,07,13,00,59,10.00
2010,07,13,01,00,6.70
2010,07,13,01,01,8.10
2010,07,13,01,02,6.60
2010,07,13,01,03,5.60
2010,07,13,01,04,8.00
2010,07,13,01,05,6.50
2010,07,13,01,06,10.30
2010,07,13,01,07,8.20
2010,07,13,01,08,4.10
2010,07,13,01,09,9.50
2010,07,13,01,10,8.80
2010,07,13,01,11,10.00
2010,07,13,01,12,10.10
2010,07,13,01,13,5.10
2010,07,13,01,14,7.10
2010,07,13,01,15,9.80
2010,07,13,01,16,18.20
2010,07,13,01,17,11.30
2010,07,13,01,18,9.70
2010,07,13,01,19,12.10
2010,07,13,01,20,11.50
2010,07,13,01,21,6.90
2010,07,13,01,22,7.90
2010,07,13,01,23,4.80
2010,07,13,01,24,9.70
2010,07,13,01,25,7.60
2010,07,13,01,26,5.00
2010,07,13,01,27,8.10
2010,07,13,01,28,4.00
2010,07,13,01,29,10.90
2010,07,13,01,30,12.40
2010,07,13,01,31,15.00
2010,07,13,01,32,9.30
2010,07,13,01,33,8.80
2010,07,13,01,34,16.50
2010,07,13,01,35,6.30
2010,07,13,01,36,7.00
2010,07,13,01,37,6.00
2010,07,13,01,38,5.70
2010,07,13,01,39,10.90
2010,07,13,01,40,11.80
2010,07,13,01,41,8.10
2010,07,13,01,42,10.10
2010,07,13,01,43,6.80
2010,07,13,01,44,7.20
2010,07,13,01,45,10.00
2010,07,13,01,46,10.50
2010,07,13,01,47,6.40
2010,07,13,01,48,8.80
2010,07,13,01,49,7.60
2010,07,13,01,50,11.80
2010,07,13,01,51,9.70
2010,07,13,01,52,11.50
2010,07,13,01,53,8.60
2010,07,13,01,54,7.30
2010,07,13,01,55,6.90
2010,07,13,01,56,7.70
2010,07,13,01,57,11.40
2010,07,13,01,58,7.70
2010,07,13,01,59,9.30
2010,07,13,02,00,7.40
2010,07,13,02,01,9.20
2010,07,13,02,02,6.50
2010,07,13,02,03,10.70
2010,07,13,02,04,8.80
2010,07,13,02,05,10.40
2010,07,13,02,06,13.00
2010,07,13,02,07,11.90
2010,07,13,02,08,10.70
2010,07,13,02,09,10.80
2010,07,13,02,10,7.80
2010,07,13,02,11,8.10
2010,07,13,02,12,7.70
2010,07,13,02,13,5.00
2010,07,13,02,14,10.60
2010,07,13,02,15,9.80
2010,07,13,02,16,5.20
2010,07,13,02,17,8.00
2010,07,13,02,18,10.50
2010,07,13,02,19,11.80
2010,07,13,02,20,4.10
2010,07,13,02,21,7.20
2010,07,13,02,22,8.60
2010,07,13,02,23,9.10
2010,07,13,02,24,8.80
2010,07,13,02,25,11.10
2010,07,13,02,26,6.00
2010,07,13,02,27,3.00
2010,07,13,02,28,6.80
2010,07,13,02,29,3.50
2010,07,13,02,30,2.50
2010,07,13,02,31,9.60
2010,07,13,02,32,6.50
2010,07,13,02,33,11.50
2010,07,13,02,34,5.70
2010,07,13,02,35,6.00
2010,07,13,02,36,7.60
2010,07,13,02,37,10.10
2010,07,13,02,38,8.10
2010,07,13,02,39,8.20
2010,07,13,02,40,9.10
2010,07,13,02,41,13.10
2010,07,13,02,42,6.40
2010,07,13,02,43,7.90
2010,07,13,02,44,8.40
2010,07,13,02,45,10.80
2010,07,13,02,46,6.70
2010,07,13,02,47,5.80
2010,07,13,02,48,5.30
2010,07,13,02,49,10.40
2010,07,13,02,50,9.10
2010,07,13,02,51,8.30
2010,07,13,02,52,6.90
2010,07,13,02,53,9.70
2010,07,13,02,54,11.10
2010,07,13,02,55,8.80
2010,07,13,02,56,7.40
2010,07,13,02,57,7.10
2010,07,13,02,58,4.80
2010,07,13,02,59,10.30
2010,07,13,03,00,12.50
2010,07,13,03,01,8.10
2010,07,13,03,02,7.50
2010,07,13,03,03,5.40
2010,07,13,03,04,6.50
2010,07,13,03,05,8.90
2010,07,13,03,06,7.80
2010,07,13,03,07,7.10
2010,07,13,03,08,7.60
2010,07,13,03,09,3.50
2010,07,13,03,10,7.30
2010,07,13,03,11,11.00
2010,07,13,03,12,4.30
2010,07,13,03,13,5.00
2010,07,13,03,14,7.30
2010,07,13,03,15,15.10
2010,07,13,03,16,6.20
2010,07,13,03,17,5.40
2010,07,13,03,18,9.00
2010,07,13,03,19,6.80
2010,07,13,03,20,12.50
2010,07,13,03,21,4.60
2010,07,13,03,22,9.20
2010,07,13,03,23,6.70
2010,07,13,03,24,6.40
2010,07,13,03,25,8.90
2010,07,13,03,26,7.50
2010,07,13,03,27,5.00
2010,07,13,03,28,7.40
2010,07,13,03,29,6.90
2010,07,13,03,30,10.80
2010,07,13,03,31,6.30
2010,07,13,03,32,4.30
2010,07,13,03,33,5.80
2010,07,13,03,34,6.50
2010,07,13,03,35,8.00
2010,07,13,03,36,4.20
2010,07,13,03,37,6.80
2010,07,13,03,38,5.60
2010,07,13,03,39,6.80
2010,07,13,03,40,3.80
2010,07,13,03,41,3.20
2010,07,13,03,42,1.90
2010,07,13,03,43,5.30
2010,07,13,03,44,6.40
2010,07,13,03,45,8.20
2010,07,13,03,46,4.70
2010,07,13,03,47,5.30
2010,07,13,03,48,3.70
2010,07,13,03,49,8.00
2010,07,13,03,50,5.20
2010,07,13,03,51,6.20
2010,07,13,03,52,4.80
2010,07,13,03,53,3.40
2010,07,13,03,54,4.40
2010,07,13,03,55,10.70
2010,07,13,03,56,9.60
2010,07,13,03,57,3.00
2010,07,13,03,58,5.80
2010,07,13,03,59,6.00
2010,07,13,04,00,2.40
2010,07,13,04,01,2.50
2010,07,13,04,02,9.70
2010,07,13,04,03,6.90
2010,07,13,04,04,5.50
2010,07,13,04,05,5.90
2010,07,13,04,06,6.00
2010,07,13,04,07,4.70
2010,07,13,04,08,7.20
2010,07,13,04,09,1.40
2010,07,13,04,10,1.60
2010,07,13,04,11,7.30
2010,07,13,04,12,6.50
2010,07,13,04,13,6.40
2010,07,13,04,14,7.50
2010,07,13,04,15,9.30
2010,07,13,04,16,3.90
2010,07,13,04,17,1.80
2010,07,13,04,18,2.10
2010,07,13,04,19,5.70
2010,07,13,04,20,4.60
2010,07,13,04,21,6.30
2010,07,13,04,22,5.30
2010,07,13,04,23,5.10
2010,07,13,04,24,2.50
2010,07,13,04,25,1.20
2010,07,13,04,26,1.30
2010,07,13,04,27,6.50
2010,07,13,04,28,7.40
2010,07,13,04,29,4.30
2010,07,13,04,30,3.80
2010,07,13,04,31,3.70
2010,07,13,04,32,8.00
2010,07,13,04,33,5.60
2010,07,13,04,34,6.60
2010,07,13,04,35,3.00
2010,07,13,04,36,3.20
2010,07,13,04,37,8.80
2010,07,13,04,38,4.60
2010,07,13,04,39,6.30
2010,07,13,04,40,7.70
2010,07,13,04,41,8.90
2010,07,13,04,42,4.60
2010,07,13,04,43,9.90
2010,07,13,04,44,5.50
2010,07,13,04,45,8.00
2010,07,13,04,46,6.10
2010,07,13,04,47,2.50
2010,07,13,04,48,9.10
2010,07,13,04,49,8.10
2010,07,13,04,50,11.70
2010,07,13,04,51,8.60
2010,07,13,04,52,7.90
2010,07,13,04,53,3.50
2010,07,13,04,54,6.10
2010,07,13,04,55,6.90
2010,07,13,04,56,5.90
2010,07,13,04,57,6.50
2010,07,13,04,58,2.90
2010,07,13,04,59,5.80
2010,07,13,05,00,4.40
2010,07,13,05,01,4.60
2010,07,13,05,02,6.90
2010,07,13,05,03,9.70
2010,07,13,05,04,7.70
2010,07,13,05,05,7.20
2010,07,13,05,06,4.10
2010,07,13,05,07,4.60
2010,07,13,05,08,4.60
2010,07,13,05,09,8.40
2010,07,13,05,10,6.80
2010,07,13,05,11,5.50
2010,07,13,05,12,4.10
2010,07,13,05,13,3.70
2010,07,13,05,14,7.30
2010,07,13,05,15,7.90
2010,07,13,05,16,9.40
2010,07,13,05,17,8.60
2010,07,13,05,18,6.50
2010,07,13,05,19,6.80
2010,07,13,05,20,8.60
2010,07,13,05,21,5.30
2010,07,13,05,22,2.20
2010,07,13,05,23,4.40
2010,07,13,05,24,10.90
2010,07,13,05,25,3.00
2010,07,13,05,26,4.20
2010,07,13,05,27,5.80
2010,07,13,05,28,2.50
2010,07,13,05,29,3.50
2010,07,13,05,30,3.30
2010,07,13,05,31,3.50
2010,07,13,05,32,4.80
2010,07,13,05,33,6.30
2010,07,13,05,34,5.10
2010,07,13,05,35,6.90
2010,07,13,05,36,6.20
2010,07,13,05,37,6.30
2010,07,13,05,38,5.50
2010,07,13,05,39,5.10
2010,07,13,05,40,5.10
2010,07,13,05,41,7.20
2010,07,13,05,42,4.10
2010,07,13,05,43,1.70
2010,07,13,05,44,9.50
2010,07,13,05,45,5.60
2010,07,13,05,46,7.50
2010,07,13,05,47,6.40
2010,07,13,05,48,8.10
2010,07,13,05,49,3.90
2010,07,13,05,50,6.30
2010,07,13,05,51,6.10
2010,07,13,05,52,2.30
2010,07,13,05,53,1.80
2010,07,13,05,54,1.80
2010,07,13,05,55,6.10
2010,07,13,05,56,6.00
2010,07,13,05,57,4.10
2010,07,13,05,58,6.60
2010,07,13,05,59,3.60
2010,07,13,06,00,6.10
2010,07,13,06,01,5.30
2010,07,13,06,02,3.90
2010,07,13,06,03,3.40
2010,07,13,06,04,11.60
2010,07,13,06,05,5.00
2010,07,13,06,06,7.70
2010,07,13,06,07,5.00
2010,07,13,06,08,4.40
2010,07,13,06,09,9.20
2010,07,13,06,10,6.60
2010,07,13,06,11,4.80
2010,07,13,06,12,7.20
2010,07,13,06,13,0.60
2010,07,13,06,14,3.70
2010,07,13,06,15,5.80
2010,07,13,06,16,9.10
2010,07,13,06,17,7.40
2010,07,13,06,18,7.50
2010,07,13,06,19,4.10
2010,07,13,06,20,5.40
2010,07,13,06,21,2.40
2010,07,13,06,22,3.10
2010,07,13,06,23,6.40
2010,07,13,06,24,1.90
2010,07,13,06,25,4.10
2010,07,13,06,26,4.80
2010,07,13,06,27,8.50
2010,07,13,06,28,6.00
2010,07,13,06,29,5.70
2010,07,13,06,30,5.10
2010,07,13,06,31,5.10
2010,07,13,06,32,7.20
2010,07,13,06,33,2.40
2010,07,13,06,34,5.60
2010,07,13,06,35,6.40
2010,07,13,06,36,3.70
2010,07,13,06,37,8.00
2010,07,13,06,38,3.00
2010,07,13,06,39,2.20
2010,07,13,06,40,7.60
2010,07,13,06,41,5.90
2010,07,13,06,42,5.20
2010,07,13,06,43,6.40
2010,07,13,06,44,8.60
2010,07,13,06,45,8.40
2010,07,13,06,46,7.50
2010,07,13,06,47,6.20
2010,07,13,06,48,3.50
2010,07,13,06,49,4.90
2010,07,13,06,50,1.80
2010,07,13,06,51,8.90
2010,07,13,06,52,6.40
2010,07,13,06,53,2.40
2010,07,13,06,54,4.90
2010,07,13,06,55,4.90
2010,07,13,06,56,9.30
2010,07,13,06,57,9.20
2010,07,13,06,58,9.00
2010,07,13,06,59,6.20
2010,07,13,07,00,5.80
2010,07,13,07,01,6.00
2010,07,13,07,02,4.50
2010,07,13,07,03,7.70
2010,07,13,07,04,9.70
2010,07,13,07,05,7.50
2010,07,13,07,06,5.20
2010,07,13,07,07,4.70
2010,07,13,07,08,5.00
2010,07,13,07,09,6.60
2010,07,13,07,10,5.40
2010,07,13,07,11,2.40
2010,07,13,07,12,8.00
2010,07,13,07,13,7.30
2010,07,13,07,14,3.50
2010,07,13,07,15,7.20
2010,07,13,07,16,7.70
2010,07,13,07,17,3.60
2010,07,13,07,18,6.40
2010,07,13,07,19,5.10
2010,07,13,07,20,2.30
2010,07,13,07,21,7.10
2010,07,13,07,22,5.80
2010,07,13,07,23,9.60
2010,07,13,07,24,7.10
2010,07,13,07,25,5.70
2010,07,13,07,26,7.60
2010,07,13,07,27,6.40
2010,07,13,07,28,6.30
2010,07,13,07,29,5.60
2010,07,13,07,30,4.70
2010,07,13,07,31,3.90
2010,07,13,07,32,6.00
2010,07,13,07,33,10.10
2010,07,13,07,34,6.40
2010,07,13,07,35,4.70
2010,07,13,07,36,4.40
2010,07,13,07,37,6.20
2010,07,13,07,38,4.70
2010,07,13,07,39,5.90
2010,07,13,07,40,8.50
2010,07,13,07,41,9.40
2010,07,13,07,42,9.10
2010,07,13,07,43,5.50
2010,07,13,07,44,5.80
2010,07,13,07,45,7.30
2010,07,13,07,46,10.30
2010,07,13,07,47,3.90
2010,07,13,07,48,9.90
2010,07,13,07,49,7.70
2010,07,13,07,50,7.70
2010,07,13,07,51,6.40
2010,07,13,07,52,12.10
2010,07,13,07,53,7.30
2010,07,13,07,54,7.00
2010,07,13,07,55,10.30
2010,07,13,07,56,7.60
2010,07,13,07,57,7.40
2010,07,13,07,58,7.30
2010,07,13,07,59,10.50
2010,07,13,08,00,8.40
2010,07,13,08,01,8.30
2010,07,13,08,02,4.30
2010,07,13,08,03,10.50
2010,07,13,08,04,6.80
2010,07,13,08,05,10.80
2010,07,13,08,06,9.00
2010,07,13,08,07,13.90
2010,07,13,08,08,8.10
2010,07,13,08,09,1.70
2010,07,13,08,10,9.70
2010,07,13,08,11,6.80
2010,07,13,08,12,4.00
2010,07,13,08,13,3.70
2010,07,13,08,14,4.70
2010,07,13,08,15,7.60
2010,07,13,08,16,7.60
2010,07,13,08,17,6.60
2010,07,13,08,18,5.00
2010,07,13,08,19,9.70
2010,07,13,08,20,4.70
2010,07,13,08,21,9.60
2010,07,13,08,22,13.40
2010,07,13,08,23,7.60
2010,07,13,08,24,9.70
2010,07,13,08,25,4.20
2010,07,13,08,26,8.50
2010,07,13,08,27,7.20
2010,07,13,08,28,8.80
2010,07,13,08,29,6.30
2010,07,13,08,30,8.50
2010,07,13,08,31,7.70
2010,07,13,08,32,6.10
2010,07,13,08,33,8.70
2010,07,13,08,34,9.00
2010,07,13,08,35,10.10
2010,07,13,08,36,9.80
2010,07,13,08,37,3.50
2010,07,13,08,38,9.20
2010,07,13,08,39,7.50
2010,07,13,08,40,11.90
2010,07,13,08,41,8.00
2010,07,13,08,42,7.50
2010,07,13,08,43,8.40
2010,07,13,08,44,7.40
2010,07,13,08,45,8.30
2010,07,13,08,46,6.30
2010,07,13,08,47,5.40
2010,07,13,08,48,11.30
2010,07,13,08,49,10.60
2010,07,13,08,50,11.20
2010,07,13,08,51,11.00
2010,07,13,08,52,11.70
2010,07,13,08,53,6.30
2010,07,13,08,54,11.60
2010,07,13,08,55,6.40
2010,07,13,08,56,12.80
2010,07,13,08,57,11.10
2010,07,13,08,58,10.80
2010,07,13,08,59,11.30
2010,07,13,09,00,9.30
2010,07,13,09,01,9.40
2010,07,13,09,02,8.60
2010,07,13,09,03,12.60
2010,07,13,09,04,6.00
2010,07,13,09,05,10.30
2010,07,13,09,06,4.70
2010,07,13,09,07,7.90
2010,07,13,09,08,10.90
2010,07,13,09,09,6.70
2010,07,13,09,10,11.80
2010,07,13,09,11,10.30
2010,07,13,09,12,10.00
2010,07,13,09,13,13.10
2010,07,13,09,14,12.00
2010,07,13,09,15,10.00
2010,07,13,09,16,12.60
2010,07,13,09,17,12.10
2010,07,13,09,18,10.40
2010,07,13,09,19,9.70
2010,07,13,09,20,6.40
2010,07,13,09,21,9.40
2010,07,13,09,22,17.90
2010,07,13,09,23,12.20
2010,07,13,09,24,10.70
2010,07,13,09,25,14.10
2010,07,13,09,26,9.10
2010,07,13,09,27,9.80
2010,07,13,09,28,8.60
2010,07,13,09,29,9.10
2010,07,13,09,30,10.90
2010,07,13,09,31,12.60
2010,07,13,09,32,9.70
2010,07,13,09,33,14.00
2010,07,13,09,34,14.30
2010,07,13,09,35,6.10
2010,07,13,09,36,8.90
2010,07,13,09,37,5.20
2010,07,13,09,38,10.50
2010,07,13,09,39,12.90
2010,07,13,09,40,16.20
2010,07,13,09,41,14.60
2010,07,13,09,42,13.60
2010,07,13,09,43,13.90
2010,07,13,09,44,7.00
2010,07,13,09,45,16.40
2010,07,13,09,46,8.80
2010,07,13,09,47,8.40
2010,07,13,09,48,10.30
2010,07,13,09,49,12.10
2010,07,13,09,50,7.90
2010,07,13,09,51,15.80
2010,07,13,09,52,12.10
2010,07,13,09,53,9.60
2010,07,13,09,54,17.90
2010,07,13,09,55,13.20
2010,07,13,09,56,11.10
2010,07,13,09,57,10.10
2010,07,13,09,58,12.20
2010,07,13,09,59,13.90
2010,07,13,10,00,11.90
2010,07,13,10,01,8.90
2010,07,13,10,02,11.40
2010,07,13,10,03,12.00
2010,07,13,10,04,8.60
2010,07,13,10,05,12.00
2010,07,13,10,06,14.00
2010,07,13,10,07,14.20
2010,07,13,10,08,11.60
2010,07,13,10,09,9.50
2010,07,13,10,10,11.40
2010,07,13,10,11,13.00
2010,07,13,10,12,11.30
2010,07,13,10,13,11.20
2010,07,13,10,14,8.60
2010,07,13,10,15,7.50
2010,07,13,10,16,14.60
2010,07,13,10,17,11.40
2010,07,13,10,18,9.20
2010,07,13,10,19,11.60
2010,07,13,10,20,12.70
2010,07,13,10,21,15.50
2010,07,13,10,22,12.90
2010,07,13,10,23,7.60
2010,07,13,10,24,14.30
2010,07,13,10,25,10.40
2010,07,13,10,26,13.00
2010,07,13,10,27,10.40
2010,07,13,10,28,11.00
2010,07,13,10,29,7.30
2010,07,13,10,30,12.80
2010,07,13,10,31,5.50
2010,07,13,10,32,8.80
2010,07,13,10,33,9.50
2010,07,13,10,34,12.70
2010,07,13,10,35,12.90
2010,07,13,10,36,16.20
2010,07,13,10,37,9.50
2010,07,13,10,38,11.40
2010,07,13,10,39,11.10
2010,07,13,10,40,11.70
2010,07,13,10,41,13.10
2010,07,13,10,42,12.60
2010,07,13,10,43,9.30
2010,07,13,10,44,7.90
2010,07,13,10,45,11.00
2010,07,13,10,46,5.90
2010,07,13,10,47,13.60
2010,07,13,10,48,13.90
2010,07,13,10,49,15.60
2010,07,13,10,50,8.90
2010,07,13,10,51,8.90
2010,07,13,10,52,13.70
2010,07,13,10,53,9.10
2010,07,13,10,54,11.50
2010,07,13,10,55,8.60
2010,07,13,10,56,9.60
2010,07,13,10,57,9.50
2010,07,13,10,58,10.90
2010,07,13,10,59,10.80
2010,07,13,11,00,10.70
2010,07,13,11,01,4.40
2010,07,13,11,02,3.60
2010,07,13,11,03,6.40
2010,07,13,11,04,7.80
2010,07,13,11,05,11.60
2010,07,13,11,06,9.50
2010,07,13,11,07,6.50
2010,07,13,11,08,9.70
2010,07,13,11,09,11.10
2010,07,13,11,10,11.90
2010,07,13,11,11,10.60
2010,07,13,11,12,11.60
2010,07,13,11,13,11.50
2010,07,13,11,14,12.00
2010,07,13,11,15,13.00
2010,07,13,11,16,11.80
2010,07,13,11,17,10.60
2010,07,13,11,18,10.60
2010,07,13,11,19,14.20
2010,07,13,11,20,9.60
2010,07,13,11,21,10.80
2010,07,13,11,22,10.50
2010,07,13,11,23,8.00
2010,07,13,11,24,6.70
2010,07,13,11,25,12.60
2010,07,13,11,26,7.90
2010,07,13,11,27,7.00
2010,07,13,11,28,8.10
2010,07,13,11,29,10.90
2010,07,13,11,30,6.70
2010,07,13,11,31,10.70
2010,07,13,11,32,7.00
2010,07,13,11,33,7.20
2010,07,13,11,34,10.50
2010,07,13,11,35,5.30
2010,07,13,11,36,9.20
2010,07,13,11,37,8.20
2010,07,13,11,38,9.30
2010,07,13,11,39,8.60
2010,07,13,11,40,11.00
2010,07,13,11,41,9.40
2010,07,13,11,42,7.40
2010,07,13,11,43,8.60
2010,07,13,11,44,11.90
2010,07,13,11,45,9.70
2010,07,13,11,46,9.10
2010,07,13,11,47,10.60
2010,07,13,11,48,9.20
2010,07,13,11,49,13.60
2010,07,13,11,50,10.50
2010,07,13,11,51,10.90
2010,07,13,11,52,7.30
2010,07,13,11,53,13.10
2010,07,13,11,54,9.80
2010,07,13,11,55,10.60
2010,07,13,11,56,9.30
2010,07,13,11,57,13.70
2010,07,13,11,58,8.00
2010,07,13,11,59,6.40
2010,07,13,12,00,10.10
2010,07,13,12,01,13.90
2010,07,13,12,02,9.10
2010,07,13,12,03,10.40
2010,07,13,12,04,10.40
2010,07,13,12,05,10.00
2010,07,13,12,06,14.80
2010,07,13,12,07,7.70
2010,07,13,12,08,12.20
2010,07,13,12,09,10.60
2010,07,13,12,10,5.40
2010,07,13,12,11,9.30
2010,07,13,12,12,8.30
2010,07,13,12,13,8.90
2010,07,13,12,14,6.70
2010,07,13,12,15,6.90
2010,07,13,12,16,5.50
2010,07,13,12,17,9.80
2010,07,13,12,18,9.30
2010,07,13,12,19,8.90
2010,07,13,12,20,5.00
2010,07,13,12,21,6.60
2010,07,13,12,22,6.10
2010,07,13,12,23,10.60
2010,07,13,12,24,9.60
2010,07,13,12,25,8.40
2010,07,13,12,26,10.20
2010,07,13,12,27,5.50
2010,07,13,12,28,9.70
2010,07,13,12,29,9.80
2010,07,13,12,30,6.40
2010,07,13,12,31,10.20
2010,07,13,12,32,10.50
2010,07,13,12,33,7.50
2010,07,13,12,34,10.80
2010,07,13,12,35,10.70
2010,07,13,12,36,8.20
2010,07,13,12,37,7.50
2010,07,13,12,38,6.60
2010,07,13,12,39,8.70
2010,07,13,12,40,10.20
2010,07,13,12,41,10.80
2010,07,13,12,42,9.70
2010,07,13,12,43,7.40
2010,07,13,12,44,12.10
2010,07,13,12,45,8.00
2010,07,13,12,46,11.20
2010,07,13,12,47,7.00
2010,07,13,12,48,12.80
2010,07,13,12,49,9.20
2010,07,13,12,50,10.30
2010,07,13,12,51,8.00
2010,07,13,12,52,7.70
2010,07,13,12,53,8.70
2010,07,13,12,54,11.90
2010,07,13,12,55,9.70
2010,07,13,12,56,6.30
2010,07,13,12,57,12.70
2010,07,13,12,58,11.10
2010,07,13,12,59,10.40
2010,07,13,13,00,12.90
2010,07,13,13,01,10.50
2010,07,13,13,02,5.50
2010,07,13,13,03,7.30
2010,07,13,13,04,10.30
2010,07,13,13,05,8.50
2010,07,13,13,06,10.70
2010,07,13,13,07,13.00
2010,07,13,13,08,8.90
2010,07,13,13,09,8.60
2010,07,13,13,10,11.60
2010,07,13,13,11,8.20
2010,07,13,13,12,12.20
2010,07,13,13,13,11.70
2010,07,13,13,14,10.70
2010,07,13,13,15,12.50
2010,07,13,13,16,10.00
2010,07,13,13,17,8.80
2010,07,13,13,18,11.00
2010,07,13,13,19,11.30
2010,07,13,13,20,9.30
2010,07,13,13,21,9.10
2010,07,13,13,22,4.40
2010,07,13,13,23,5.30
2010,07,13,13,24,9.30
2010,07,13,13,25,7.40
2010,07,13,13,26,7.50
2010,07,13,13,27,2.00
2010,07,13,13,28,3.80
2010,07,13,13,29,5.50
2010,07,13,13,30,9.10
2010,07,13,13,31,8.50
2010,07,13,13,32,6.90
2010,07,13,13,33,4.40
2010,07,13,13,34,4.90
2010,07,13,13,35,2.10
2010,07,13,13,36,2.20
2010,07,13,13,37,1.90
2010,07,13,13,38,1.90
2010,07,13,13,39,2.20
2010,07,13,13,40,3.00
2010,07,13,13,41,6.60
2010,07,13,13,42,4.10
2010,07,13,13,43,4.90
2010,07,13,13,44,3.00
2010,07,13,13,45,2.70
2010,07,13,13,46,2.50
2010,07,13,13,47,2.90
2010,07,13,13,48,2.60
2010,07,13,13,49,3.00
2010,07,13,13,50,3.10
2010,07,13,13,51,1.30
2010,07,13,13,52,4.20
2010,07,13,13,53,2.70
2010,07,13,13,54,3.60
2010,07,13,13,55,4.20
2010,07,13,13,56,5.00
2010,07,13,13,57,5.30
2010,07,13,13,58,3.30
2010,07,13,13,59,8.60
2010,07,13,14,00,8.20
2010,07,13,14,01,4.70
2010,07,13,14,02,5.10
2010,07,13,14,03,3.80
2010,07,13,14,04,6.00
2010,07,13,14,05,2.10
2010,07,13,14,06,2.80
2010,07,13,14,07,3.40
2010,07,13,14,08,2.90
2010,07,13,14,09,5.90
2010,07,13,14,10,4.70
2010,07,13,14,11,2.50
2010,07,13,14,12,2.70
2010,07,13,14,13,7.40
2010,07,13,14,14,5.00
2010,07,13,14,15,5.40
2010,07,13,14,16,3.50
2010,07,13,14,17,4.60
2010,07,13,14,18,7.00
2010,07,13,14,19,0.40
2010,07,13,14,20,2.70
2010,07,13,14,21,6.00
2010,07,13,14,22,3.30
2010,07,13,14,23,0.30
2010,07,13,14,24,2.30
2010,07,13,14,25,5.90
2010,07,13,14,26,4.70
2010,07,13,14,27,1.00
2010,07,13,14,28,3.60
2010,07,13,14,29,4.30
2010,07,13,14,30,5.50
2010,07,13,14,31,6.10
2010,07,13,14,32,4.20
2010,07,13,14,33,4.20
2010,07,13,14,34,3.60
2010,07,13,14,35,3.00
2010,07,13,14,36,2.50
2010,07,13,14,37,2.50
2010,07,13,14,38,4.70
2010,07,13,14,39,4.60
2010,07,13,14,40,4.20
2010,07,13,14,41,4.60
2010,07,13,14,42,5.00
2010,07,13,14,43,1.60
2010,07,13,14,44,3.40
2010,07,13,14,45,5.10
2010,07,13,14,46,3.20
2010,07,13,14,47,4.50
2010,07,13,14,48,3.40
2010,07,13,14,49,4.70
2010,07,13,14,50,5.10
2010,07,13,14,51,5.30
2010,07,13,14,52,5.20
2010,07,13,14,53,4.30
2010,07,13,14,54,3.90
2010,07,13,14,55,2.20
2010,07,13,14,56,0.50
2010,07,13,14,57,3.60
2010,07,13,14,58,6.00
2010,07,13,14,59,5.80
2010,07,13,15,00,4.90
2010,07,13,15,01,3.40
2010,07,13,15,02,1.80
2010,07,13,15,03,3.60
2010,07,13,15,04,4.60
2010,07,13,15,05,4.30
2010,07,13,15,06,3.20
2010,07,13,15,07,3.90
2010,07,13,15,08,4.80
2010,07,13,15,09,1.90
2010,07,13,15,10,4.60
2010,07,13,15,11,2.50
2010,07,13,15,12,3.00
2010,07,13,15,13,3.40
2010,07,13,15,14,4.60
2010,07,13,15,15,3.70
2010,07,13,15,16,6.10
2010,07,13,15,17,6.00
2010,07,13,15,18,6.50
2010,07,13,15,19,5.00
2010,07,13,15,20,2.90
2010,07,13,15,21,2.00
2010,07,13,15,22,3.10
2010,07,13,15,23,2.80
2010,07,13,15,24,2.40
2010,07,13,15,25,2.80
2010,07,13,15,26,1.00
2010,07,13,15,27,3.80
2010,07,13,15,28,2.50
2010,07,13,15,29,3.90
2010,07,13,15,30,3.30
2010,07,13,15,31,6.40
2010,07,13,15,32,2.00
2010,07,13,15,33,3.80
2010,07,13,15,34,1.60
2010,07,13,15,35,3.30
2010,07,13,15,36,5.00
2010,07,13,15,37,4.00
2010,07,13,15,38,3.40
2010,07,13,15,39,3.10
2010,07,13,15,40,5.60
2010,07,13,15,41,6.50
2010,07,13,15,42,3.90
2010,07,13,15,43,3.10
2010,07,13,15,44,3.40
2010,07,13,15,45,1.50
2010,07,13,15,46,2.80
2010,07,13,15,47,5.00
2010,07,13,15,48,4.10
2010,07,13,15,49,3.60
2010,07,13,15,50,5.20
2010,07,13,15,51,7.70
2010,07,13,15,52,3.30
2010,07,13,15,53,8.40
2010,07,13,15,54,3.90
2010,07,13,15,55,4.20
2010,07,13,15,56,5.50
2010,07,13,15,57,2.90
2010,07,13,15,58,1.70
2010,07,13,15,59,1.10
2010,07,13,16,00,4.00
2010,07,13,16,01,3.10
2010,07,13,16,02,8.50
2010,07,13,16,03,4.20
2010,07,13,16,04,8.30
2010,07,13,16,05,5.90
2010,07,13,16,06,7.60
2010,07,13,16,07,4.20
2010,07,13,16,08,4.80
2010,07,13,16,09,6.10
2010,07,13,16,10,5.60
2010,07,13,16,11,4.20
2010,07,13,16,12,2.90
2010,07,13,16,13,3.30
2010,07,13,16,14,4.80
2010,07,13,16,15,4.70
2010,07,13,16,16,7.10
2010,07,13,16,17,3.80
2010,07,13,16,18,3.30
2010,07,13,16,19,1.80
2010,07,13,16,20,5.50
2010,07,13,16,21,5.90
2010,07,13,16,22,4.80
2010,07,13,16,23,8.10
2010,07,13,16,24,4.10
2010,07,13,16,25,5.30
2010,07,13,16,26,2.20
2010,07,13,16,27,1.60
2010,07,13,16,28,3.20
2010,07,13,16,29,3.50
2010,07,13,16,30,3.70
2010,07,13,16,31,4.30
2010,07,13,16,32,6.30
2010,07,13,16,33,6.90
2010,07,13,16,34,1.60
2010,07,13,16,35,3.20
2010,07,13,16,36,3.90
2010,07,13,16,37,3.60
2010,07,13,16,38,6.00
2010,07,13,16,39,4.00
2010,07,13,16,40,6.00
2010,07,13,16,41,4.30
2010,07,13,16,42,0.40
2010,07,13,16,43,1.90
2010,07,13,16,44,1.50
2010,07,13,16,45,1.90
2010,07,13,16,46,3.20
2010,07,13,16,47,2.10
2010,07,13,16,48,2.60
2010,07,13,16,49,2.90
2010,07,13,16,50,4.70
2010,07,13,16,51,3.80
2010,07,13,16,52,1.90
2010,07,13,16,53,2.70
2010,07,13,16,54,4.60
2010,07,13,16,55,1.60
2010,07,13,16,56,4.40
2010,07,13,16,57,3.10
2010,07,13,16,58,1.40
2010,07,13,16,59,0.90
2010,07,13,17,00,4.20
2010,07,13,17,01,5.10
2010,07,13,17,02,2.90
2010,07,13,17,03,0.90
2010,07,13,17,04,1.10
2010,07,13,17,05,2.20
2010,07,13,17,06,0.30
2010,07,13,17,07,1.40
2010,07,13,17,08,5.50
2010,07,13,17,09,1.60
2010,07,13,17,10,3.10
2010,07,13,17,11,2.10
2010,07,13,17,12,1.60
2010,07,13,17,13,1.90
2010,07,13,17,14,1.20
2010,07,13,17,15,1.90
2010,07,13,17,16,1.00
2010,07,13,17,17,3.00
2010,07,13,17,18,2.10
2010,07,13,17,19,1.90
2010,07,13,17,20,3.00
2010,07,13,17,21,1.70
2010,07,13,17,22,1.70
2010,07,13,17,23,2.90
2010,07,13,17,24,1.90
2010,07,13,17,25,2.00
2010,07,13,17,26,0.50
2010,07,13,17,27,0.30
2010,07,13,17,28,1.90
2010,07,13,17,29,1.10
2010,07,13,17,30,0.30
2010,07,13,17,31,1.00
2010,07,13,17,32,1.20
2010,07,13,17,33,1.70
2010,07,13,17,34,1.60
2010,07,13,17,35,2.90
2010,07,13,17,36,2.40
2010,07,13,17,37,1.40
2010,07,13,17,38,2.10
2010,07,13,17,39,1.40
2010,07,13,17,40,0.80
2010,07,13,17,41,0.40
2010,07,13,17,42,1.50
2010,07,13,17,43,1.00
2010,07,13,17,44,0.10
2010,07,13,17,45,4.80
2010,07,13,17,46,1.20
2010,07,13,17,47,2.00
2010,07,13,17,48,0.80
2010,07,13,17,49,1.40
2010,07,13,17,50,3.00
2010,07,13,17,51,1.40
2010,07,13,17,52,0.40
2010,07,13,17,53,1.40
2010,07,13,17,54,1.20
2010,07,13,17,55,0.40
2010,07,13,17,56,0.10